www.pogodaiklimat.ru
ПОГОДА в Летисии

Архив погоды в Летисии (Колумбия)

Время
(UTC), дата
22 25.01
23 25.01
00 26.01
01 26.01
02 26.01
03 26.01
04 26.01
05 26.01
06 26.01
07 26.01
08 26.01
09 26.01
10 26.01
11 26.01
12 26.01
13 26.01
14 26.01
15 26.01
16 26.01
17 26.01
18 26.01
19 26.01
20 26.01
21 26.01
22 26.01
23 26.01
00 27.01
01 27.01
02 27.01
03 27.01
04 27.01
05 27.01
06 27.01
07 27.01
08 27.01
09 27.01
10 27.01
11 27.01
12 27.01
13 27.01
14 27.01
15 27.01
16 27.01
17 27.01
18 27.01
19 27.01
20 27.01
21 27.01
22 27.01
23 27.01
00 28.01
01 28.01
02 28.01
03 28.01
04 28.01
05 28.01
06 28.01
07 28.01
08 28.01
09 28.01
10 28.01
11 28.01
12 28.01
13 28.01
14 28.01
15 28.01
16 28.01
17 28.01
18 28.01
19 28.01
20 28.01
21 28.01
22 28.01
23 28.01
00 29.01
01 29.01
02 29.01
03 29.01
04 29.01
05 29.01
06 29.01
07 29.01
08 29.01
09 29.01
10 29.01
11 29.01
12 29.01
13 29.01
14 29.01
15 29.01
16 29.01
17 29.01
18 29.01
19 29.01
20 29.01
21 29.01
22 29.01
23 29.01
00 30.01
01 30.01
02 30.01
03 30.01
04 30.01
05 30.01
06 30.01
07 30.01
08 30.01
09 30.01
10 30.01
11 30.01
12 30.01
13 30.01
14 30.01
15 30.01
16 30.01
17 30.01
18 30.01
19 30.01
20 30.01
21 30.01
22 30.01
23 30.01
00 31.01
01 31.01
02 31.01
03 31.01
04 31.01
05 31.01
06 31.01
07 31.01
08 31.01
09 31.01
10 31.01
11 31.01
12 31.01
13 31.01
14 31.01
15 31.01
16 31.01
17 31.01
18 31.01
19 31.01
20 31.01
21 31.01
22 31.01
00 1.02
01 1.02
02 1.02
03 1.02
04 1.02
05 1.02
06 1.02
07 1.02
08 1.02
09 1.02
10 1.02
11 1.02
12 1.02
13 1.02
14 1.02
15 1.02
16 1.02
17 1.02
18 1.02
19 1.02
20 1.02
21 1.02
22 1.02
23 31.02
Ветер
(напр.,м/с)
Видим. Явления Облачность Т
(С)
Тd
(С)
f
(%)
Тe
(С)
Тes
(С)
Комфортность P
(гПа)
Po
(гПа)
Тmin
(С)
Tmax
(С)
R
(мм)
R24
(мм)
S
(см)
нст 1 10 км 8/5 540 м
[Ac]
+29.0 +25.0 79 +42 +42 очень
душно
1006.0 996.7
нст 1 10 км 8/2 450 м
[Ac]
+27.0 +25.0 89 +39 +39 очень
душно
1007.0 997.0
штиль 0 20 км 1/1 450 м
[Cu Sc]
+25.8 +25.3 97 +37 +37 очень
душно
1007.8 998.8 +30.5
штиль 0 10 км 2/2 360 м +25.0 +25.0 100 1008.0 998.7
штиль 0 10 км 2/2 360 м +25.0 +25.0 100 1009.0 999.7
нст 1 20 км ясно +24.6 +24.3 98 +34 +34 очень
душно
1010.1 1001.0
нст 1 10 км ясно +24.0 +24.0 100 +33 +33 очень
душно
1010.0 1000.4
С 2 10 км 8/2 300 м
[Ac]
+24.0 +24.0 100 +33 +33 очень
душно
1010.0 1000.0
нст 1 20 км 4/1 300 м
[Sc Ac trans]
+24.5 +23.3 93 +33 +33 очень
душно
1008.8 999.8
СВ 4 10 км гроза, ливневой дождь 8/5 300 м
[Ac Cb]
+23.0 +23.0 100 +32 +32 очень
душно
1009.0 999.0
З 2 10 км слаб. морось 8/5 300 м
[Ac St]
+23.0 +23.0 100 +32 +32 очень
душно
1008.0 998.7
З 2 14 км осадки на расстоянии {гроза, морось} 9/3 300 м
[Sc Ac As]
+23.3 +22.6 100 +32 +32 очень
душно
1008.8 999.8
З 2 10 км 8/5 210 м
[Ac]
+23.0 +23.0 100 +32 +32 очень
душно
1009.0 999.3
ЮЗ 2 10 км 8/2 210 м
[Ac]
+23.0 +23.0 100 +32 +32 очень
душно
1010.0 1000.0
штиль 0 20 км {гроза, дождь} 9/3 360 м
[Sc Ac und]
+23.6 +23.1 94 +31 +32 очень
душно
1010.9 1001.9 +23.0 4
нст 1 10 км 8/2 360 м
[Ac]
+25.0 +23.0 89 +33 +36 очень
душно
1011.0 1001.0
нст 1 10 км 8/2 450 м
[Ac]
+26.0 +24.0 89 +36 +41 очень
душно
1011.0 1001.4
С 2 10 км 5/5 450 м
[Ac]
+28.0 +24.0 79 +39 +47 очень
душно
1011.0 1001.0
В 2 10 км 5/0 2400 м
[Ac]
+30.0 +25.0 75 +43 +56 очень
душно
1010.0 1000.7
З 3 10 км 8/8 600 м
[Ac]
+29.0 +25.0 79 +42 +45 очень
душно
1009.0 999.7
В 1 10 км слаб. морось 9/6 360 м
[Cu Sc Ac As]
+29.4 +24.8 79 +42 +48 очень
душно
1008.6 999.2
нст 1 10 км 8/5 600 м
[Ac]
+30.0 +26.0 79 +45 +50 очень
душно
1006.0 996.7
С 3 10 км 8/5 510 м
[Ac]
+26.0 +22.0 79 +34 +36 очень
душно
1006.0 996.3
З 2 20 км 9/9 300 м +28.1 +23.9 79 +39 +40 очень
душно
1005.7 995.7
нст 1 10 км 8/5 510 м
[Ac]
+29.0 +24.0 74 +40 +40 очень
душно
1006.0 996.0
нст 1 10 км 8/5 510 м
[Ac]
+27.0 +25.0 89 +39 +39 очень
душно
1006.0 996.7
В 1 20 км {морось} 6/3 400 м
[Sc Ac trans]
+25.5 +24.8 96 +36 +36 очень
душно
1007.2 997.8 +30.9 0.1
штиль 0 10 км 2/2 390 м +25.0 +25.0 100 1008.0 998.7
штиль 0 10 км 2/2 390 м +25.0 +24.0 94 1009.0 999.3
штиль 0 20 км 4/0 2000 м
[Ac trans]
+24.4 +23.9 97 +33 +33 очень
душно
1009.9 1000.5
нст 1 10 км слаб. дождь 8/5 300 м
[Ac Ns]
+24.0 +24.0 100 +33 +33 очень
душно
1010.0 999.7
штиль 0 10 км 8/5 300 м
[Ac]
+24.0 +24.0 100 1009.0 999.3
штиль 0 20 км {дождь} 10/5 300 м
[Sc Ac As]
+24.0 +23.6 100 +33 +33 очень
душно
1008.8 999.4
штиль 0 10 км 8/5 300 м
[Ac]
+24.0 +23.0 94 1008.0 998.0
штиль 0 10 км 8/5 300 м
[Ac]
+23.0 +23.0 100 1008.0 998.0
штиль 0 10 км 2/2 300 м +23.0 +23.0 100 1008.0 998.0
штиль 0 10 км 2/2 300 м +23.0 +23.0 100 1008.0 998.3
штиль 0 10 км 5/2 600 м
[Ac]
+23.0 +22.0 94 1009.0 999.3
СВ 1 20 км 5/4 450 м
[Sc Ac trans Ci fib]
+24.6 +23.5 94 +34 +37 очень
душно
1010.1 1000.7 +22.6 0.1
В 2 10 км 2/2 510 м +27.0 +24.0 84 +37 +43 очень
душно
1010.0 1000.7
СВ 3 10 км ясно +28.0 +23.0 74 +37 +48 очень
душно
1010.0 1000.7
СВ 2 20 км 4/3 500 м
[Cu hum Ac trans Ci fib]
+30.0 +24.9 75 +43 +57 очень
душно
1010.8 1001.4
С 3 10 км 5/5 510 м +31.0 +24.0 66 +43 +51 очень
душно
1010.0 1000.0
С 3 10 км ливневой дождь 8/8 480 м
[Cb]
+31.0 +23.0 62 +41 +44 очень
душно
1009.0 999.3
Ю 2 20 км в посл. час морось 9/6 600 м
[Cu Sc Ac As]
+30.2 +24.4 70 +41 +45 очень
душно
1008.3 998.9 0.2
З 2 10 км 8/5 600 м
[Ac]
+32.0 +25.0 67 +46 +50 очень
душно
1006.0 996.7
СЗ 4 10 км 8/5 360 м
[Ac]
+30.0 +25.0 75 +43 +45 очень
душно
1005.0 995.3
СЗ 3 20 км 9/3 600 м
[Cu hum Ac trans]
+30.4 +24.0 70 +41 +43 очень
душно
1005.7 996.3
З 2 10 км 8/5 450 м
[Ac]
+29.0 +24.0 74 +40 +40 очень
душно
1006.0 996.3
нст 1 10 км 8/5 390 м
[Ac]
+28.0 +25.0 84 +40 +40 очень
душно
1007.0 997.0
С 3 18 км зарница 9/5 300 м
[Cu Sc Ac As]
+27.4 +23.9 81 +38 +38 очень
душно
1007.3 998.3 +32.6
нст 1 н/о дождь 8/8 300 м
[Ac Ns]
+24.0 +24.0 100 +33 +33 очень
душно
1008.0 998.7
нст 1 10 км 8/5 300 м
[Ac]
+24.0 +24.0 100 +33 +33 очень
душно
1009.0 999.3
В 1 20 км {дождь} 9/5 300 м
[Sc Ac As]
+24.5 +24.0 97 +34 +34 очень
душно
1010.0 1001.0
штиль 0 10 км 8/2 300 м
[Ac]
+24.0 +24.0 100 1009.0 999.3
штиль 0 10 км 8/2 300 м
[Ac]
+24.0 +24.0 100 1009.0 998.7
штиль 0 10 км 8/2 300 м
[Ac]
+24.0 +24.0 100 1009.0 998.7
нст 1 10 км ясно +24.0 +23.0 94 +32 +32 очень
душно
1008.0 997.7
штиль 0 10 км 5/2 300 м
[Ac]
+24.0 +23.0 94 1007.0 997.7
штиль 0 20 км 6/0 300 м
[Ac und]
+23.7 +23.5 100 +32 +32 очень
душно
1008.1 999.1
нст 1 10 км 8/2 300 м
[Ac]
+24.0 +23.0 94 +32 +32 очень
душно
1008.0 998.3
нст 1 10 км 8/2 300 м
[Ac]
+24.0 +23.0 94 +32 +32 очень
душно
1009.0 999.0
ЮВ 2 20 км 9/1 400 м
[Sc Ac trans Ci fib]
+24.0 +23.2 94 +32 +33 очень
душно
1010.5 1001.1 +23.5 16
ЮВ 2 10 км 8/2 390 м
[Ac]
+25.0 +23.0 89 +33 +36 очень
душно
1011.0 1001.4
ЮВ 2 10 км 8/2 390 м
[Ac]
+26.0 +24.0 89 +36 +41 очень
душно
1011.0 1001.4
В 2 20 км 9/1 400 м
[Sc Ac trans]
+26.8 +23.2 79 +36 +43 очень
душно
1011.3 1001.9
СВ 2 10 км 8/2 450 м
[Ac]
+29.0 +24.0 74 +40 +48 очень
душно
1011.0 1001.0
В 2 10 км 8/2 600 м
[Ac]
+30.0 +24.0 70 +41 +49 очень
душно
1010.0 1000.4
нст 2 20 км 8/3 500 м
[Cu med, cong Ac trans]
+30.0 +23.7 70 +41 +48 очень
душно
1009.3 1000.3
СВ 2 10 км 5/2 510 м
[Ac]
+32.0 +24.0 63 +44 +52 очень
душно
1007.0 997.7
В 4 10 км ливневой дождь 5/5 510 м
[Cb]
+30.0 +22.0 62 +39 +42 очень
душно
1006.0 996.3
нст 1 15 км осадки на расстоянии {морось} 5/4 500 м
[Cu med, cong Ac trans Ci fib]
+27.3 +24.9 89 +39 +41 очень
душно
1006.2 997.2
нст 1 10 км 8/2 510 м
[Ac]
+28.0 +25.0 84 +40 +41 очень
душно
1006.0 997.0
нст 1 10 км ливневой дождь 8/2 450 м
[Ac Cb]
+27.0 +26.0 94 +40 +40 очень
душно
1007.0 997.3
С 1 20 км 8/5 480 м
[Cu Sc Ac trans Ci fib]
+26.4 +24.8 94 +37 +37 очень
душно
1008.6 999.2 +32.1 2
нст 1 10 км ливневой дождь 8/8 450 м
[Cb]
+25.0 +24.0 94 +34 +34 очень
душно
1009.0 999.7
нст 1 10 км 5/5 480 м +25.0 +24.0 94 +34 +34 очень
душно
1010.0 1000.7
штиль 0 20 км {дождь} 6/4 300 м
[Cu Sc Ac trans Ci fib]
+24.2 +23.9 100 +33 +33 очень
душно
1011.6 1002.2
нст 1 10 км 5/5 450 м +24.0 +24.0 100 +33 +33 очень
душно
1011.0 1001.4
штиль 0 10 км 5/5 450 м +24.0 +24.0 100 1010.0 1000.7
штиль 0 20 км 8/6 400 м
[Sc Ac trans Ci fib]
+24.4 +23.9 100 +33 +33 очень
душно
1010.1 1000.7
штиль 0 10 км 5/5 450 м +24.0 +24.0 100 1009.0 999.3
нст 1 10 км 5/5 450 м +24.0 +24.0 100 +33 +33 очень
душно
1009.0 998.7
штиль 0 20 км 6/4 450 м
[Sc Ac trans Ci fib]
+23.9 +23.6 100 +32 +32 очень
душно
1008.9 999.5
штиль 0 10 км 5/5 480 м +24.0 +24.0 100 1009.0 999.0
штиль 0 10 км 5/5 450 м +24.0 +24.0 100 1009.0 999.7
штиль 0 20 км 10/10 300 м +24.2 +23.9 100 +33 +34 очень
душно
1011.0 1001.6 +23.7 1
штиль 0 10 км 8/2 300 м
[Ac]
+25.0 +24.0 94 1011.0 1001.7
штиль 0 10 км 8/2 300 м
[Ac]
+26.0 +25.0 94 1012.0 1002.0
В 1 20 км 9/3 400 м
[Sc Ac und]
+27.2 +24.5 89 +39 +45 очень
душно
1012.1 1002.7
СЗ 2 10 км 8/5 510 м
[Ac]
+29.0 +25.0 79 +42 +48 очень
душно
1011.0 1001.4
нст 1 10 км 8/8 390 м +30.0 +25.0 75 +43 +48 очень
душно
1010.0 1000.4
З 3 10 км осадки на расстоянии {дождь} 10/6 450 м
[Cu hum Ac As]
+24.0 +23.0 94 +32 +35 очень
душно
1009.2 999.8 7
З 2 10 км 5/5 450 м
[Ac]
+27.0 +24.0 84 +37 +45 очень
душно
1008.0 997.7
З 3 10 км 2/2 450 м +29.0 +24.0 74 +40 +46 очень
душно
1006.0 996.7
З 4 10 км осадки на расстоянии {дождь} 8/3 450 м
[Cu med, cong Ac trans Ci fib]
+25.1 +23.7 92 +24 +24 комфорт 1006.0 996.7
З 3 10 км 5/2 450 м
[Ac]
+28.0 +24.0 79 +39 +39 очень
душно
1006.0 996.7
ЮЗ 2 10 км 8/5 390 м
[Ac]
+27.0 +25.0 89 +39 +39 очень
душно
1008.0 997.7
ЮЗ 2 14 км осадки на расстоянии 9/5 400 м
[Cb cap Ac As]
+26.3 +24.5 94 +37 +37 очень
душно
1008.7 999.7 +30.6
С 4 10 км гроза, ливневой дождь 8/8 300 м
[Cb]
+25.0 +24.0 94 +34 +34 очень
душно
1010.0 1000.0
СВ 2 н/о гроза, ливневой дождь 8/8 300 м
[Cb]
+24.0 +24.0 100 +33 +33 очень
душно
1010.0 1000.4
С 3 2500 м сильн. дождь {гроза, морось} 10/10 240 м
[Cu Sc]
+23.4 +23.2 99 +33 +33 очень
душно
1011.0 1002.0
нст 1 10 км слаб. морось 5/5 240 м
[Ac St]
+23.0 +23.0 100 +32 +32 очень
душно
1010.0 1000.4
С 2 10 км гроза, ливневой дождь 8/5 240 м
[Ac Cb]
+23.0 +23.0 100 +32 +32 очень
душно
1010.0 1000.7
нст 1 12 км в посл. час гроза {дождь} 9/4 240 м
[Sc Ac As]
+23.2 +23.0 100 +32 +32 очень
душно
1010.0 1001.0
нст 1 10 км 8/5 150 м
[Ac]
+23.0 +23.0 100 +32 +32 очень
душно
1009.0 999.0
С 2 10 км 8/5 150 м
[Ac]
+23.0 +23.0 100 +32 +32 очень
душно
1009.0 999.0
нст 1 16 км 9/4 150 м
[Sc Ac As]
+23.1 +22.8 100 +32 +32 очень
душно
1009.5 1000.5
нст 1 10 км 8/5 150 м
[Ac]
+23.0 +23.0 100 +32 +32 очень
душно
1009.0 999.7
штиль 0 10 км 8/2 150 м
[Ac]
+22.0 +22.0 100 1010.0 1000.4
штиль 0 20 км {гроза, дождь} 9/1 150 м
[Sc Ac As]
+22.7 +22.2 94 +31 +32 очень
душно
1011.3 1002.3 +22.3 48
штиль 0 10 км 8/2 150 м
[Ac]
+23.0 +22.0 94 1012.0 1002.0
штиль 0 10 км 8/2 150 м
[Ac]
+23.0 +22.0 94 1013.0 1003.0
В 1 20 км 10/6 300 м
[Sc Ac As]
+24.3 +22.7 94 +32 +36 очень
душно
1013.4 1003.8
В 2 10 км 8/8 390 м
[Ac]
+25.0 +23.0 89 +33 +37 очень
душно
1012.0 1002.0
нст 1 10 км 8/8 450 м
[Ac]
+26.0 +23.0 84 +35 +40 очень
душно
1011.0 1001.4
ЮВ 1 20 км 9/8 450 м
[Cu Sc Ac trans]
+26.8 +22.9 79 +36 +41 очень
душно
1010.8 1001.4
нст 1 10 км 8/8 450 м +28.0 +23.0 74 +37 +41 очень
душно
1009.0 999.3
нст 1 10 км 5/5 480 м +29.0 +23.0 70 +39 +44 очень
душно
1008.0 997.7
З 1 20 км 6/4 480 м
[Cu Sc Ac trans Ci fib]
+28.7 +23.1 70 +39 +41 очень
душно
1007.1 997.7
З 2 10 км 5/5 480 м +29.0 +24.0 74 +40 +40 очень
душно
1006.0 996.7
ЮВ 2 10 км 5/5 480 м +27.0 +24.0 84 +37 +37 очень
душно
1007.0 997.3
Ю 1 20 км 6/4 450 м
[Sc Ac trans]
+25.6 +23.8 89 +36 +36 очень
душно
1008.4 999.0 +29.5
штиль 0 10 км 8/2 390 м
[Ac]
+25.0 +24.0 94 1009.0 999.0
штиль 0 10 км 8/2 390 м
[Ac]
+24.0 +24.0 100 1009.0 999.7
штиль 0 20 км 9/1 400 м
[Sc Ac und]
+23.6 +23.2 94 +32 +32 очень
душно
1010.6 1001.2
штиль 0 10 км 8/2 390 м
[Ac]
+24.0 +23.0 94 1010.0 1000.7
нст 1 10 км 8/2 390 м
[Ac]
+24.0 +23.0 94 +32 +32 очень
душно
1010.0 1000.4
штиль 0 20 км 9/1 400 м
[Sc Ac und]
+23.4 +23.1 100 +33 +33 очень
душно
1009.6 1000.2
штиль 0 10 км 8/2 390 м
[Ac]
+23.0 +23.0 100 1008.0 998.7
штиль 0 10 км 8/2 360 м
[Ac]
+23.0 +23.0 100 1008.0 998.0
штиль 0 20 км 9/1 360 м
[Sc Ac und]
+22.9 +22.8 100 +31 +31 очень
душно
1007.9 998.5
штиль 0 10 км 8/2 300 м
[Ac]
+23.0 +23.0 100 1008.0 998.7
штиль 0 10 км 8/8 210 м
[Ac]
+23.0 +23.0 100 1009.0 999.3
нст 1 15 км 10/5 210 м
[St Ac und]
+23.6 +23.1 94 +32 +33 очень
душно
1010.3 1001.3 +22.7
нст 1 10 км 8/2 120 м
[Ac]
+25.0 +23.0 89 +33 +36 очень
душно
1011.0 1001.4
нст 2 10 км 10/2 180 м
[Ac]
+26.0 +24.0 89 +36 +39 очень
душно
1011.0 1001.7
нст 2 20 км 10/4 300 м
[Sc Ac und]
+27.0 +23.9 84 +37 +42 очень
душно
1011.8 1002.8
нст 2 10 км 8/8 360 м
[Ac]
+29.0 +25.0 79 +42 +46 очень
душно
1011.0 1001.4
В 3 10 км ливневой дождь 8/8 450 м
[Cb]
+29.0 +25.0 79 +42 +45 очень
душно
1010.0 1000.4
Ю 2 12 км слаб. морось {дождь} 9/5 450 м
[Cb cap Ac As]
+24.0 +24.0 100 +33 +37 очень
душно
1009.0 999.7
СЗ 2 н/о слаб. морось 8/5 450 м
[Ac St]
+28.0 +27.0 94 +44 +48 очень
душно
1008.0 998.0
нст 1 10 км 8/8 540 м
[Ac]
+27.0 +24.0 84 +37 +40 очень
душно
1007.0 997.0
ЮВ 3 20 км {морось} 8/5 540 м
[Cu hum Ac und]
+29.0 +25.0 79 +42 +43 очень
душно
1006.0 996.0
В 2 10 км 5/2 540 м
[Ac]
+29.0 +25.0 79 +42 +42 очень
душно
1006.0 996.0
штиль 0 20 км {дождь} 5/1 600 м
[Cu hum Ac trans]
+25.6 +25.1 94 +37 +37 очень
душно
1008.4 999.0 +29.7 0.5
нст 1 10 км 5/2 450 м
[Ac]
+24.0 +23.0 94 +32 +32 очень
душно
1009.0 999.3
штиль 0 10 км 5/2 450 м
[Ac]
+24.0 +23.0 94 1010.0 1000.0
штиль 0 20 км {дождь} 5/3 450 м
[Cu hum Ac trans]
+23.7 +23.2 97 +32 +32 очень
душно
1011.2 1001.8
штиль 0 10 км 5/2 450 м
[Ac]
+24.0 +23.0 94 1011.0 1001.0
штиль 0 10 км 5/2 450 м
[Ac]
+23.0 +23.0 100 1010.0 1000.4
СВ 1 20 км {дождь} 5/3 450 м
[Cu hum Ac trans]
+23.2 +22.5 100 +32 +32 очень
душно
1009.8 1000.4
нст 1 10 км 5/2 390 м
[Ac]
+23.0 +23.0 100 +32 +32 очень
душно
1009.0 999.3
нст 1 10 км 5/2 390 м
[Ac]
+23.0 +23.0 100 +32 +32 очень
душно
1008.0 998.7
штиль 0 20 км 4/0 300 м
[Ac trans]
+22.9 +22.5 100 +31 +31 очень
душно
1009.0 999.6
штиль 0 10 км 2/2 300 м +23.0 +23.0 100 1009.0 999.3
штиль 0 10 км 5/2 300 м
[Ac]
+23.0 +22.0 94 1010.0 999.7
ЮВ 1 20 км 5/3 300 м
[Sc Ac trans Ci fib]
+23.7 +23.0 94 +32 +34 очень
душно
1010.6 1001.2 +22.8 2
В 2 10 км 5/5 390 м +25.0 +24.0 94 +34 +38 очень
душно
1011.0 1001.0
СВ 2 10 км 5/5 450 м +27.0 +24.0 84 +37 +44 очень
душно
1012.0 1002.0
нст 1 20 км 9/5 480 м
[Sc Ac trans Ci fib]
+27.0 +25.0 89 +39 +49 очень
душно
1012.0 1002.0
С 2 10 км 5/5 480 м +28.0 +25.0 84 +40 +51 опасность
солнечного
удара
1011.0 1001.7
нст 1 10 км 5/5 480 м +29.0 +25.0 79 +42 +54 очень
душно
1011.0 1001.0
ЮЗ 2 10 км мгла {морось} 8/6 480 м
[Cu med, cong]
+29.3 +26.0 84 +44 +47 очень
душно
1009.5 1000.5 0.2
З 3 10 км слаб. морось 5/5 540 м
[St]
+28.0 +27.0 94 +44 +50 очень
душно
1008.0 997.7
нст 2 10 км 5/5 540 м +28.0 +23.0 74 +37 +42 очень
душно
1007.0 996.7
нст 2 20 км 5/4 600 м
[Cu hum Ci fib]
+31.0 +24.0 66 +43 +45 очень
душно
1005.0 995.7
нст 2 10 км 5/5 600 м +29.0 +24.0 74 +40 +40 очень
душно
1005.0 996.0
нст 1 10 км 5/5 450 м
[Ac]
+27.0 +26.0 94 +40 +40 очень
душно
1006.0 997.0
Местоположение метеостанции Летисия (Колумбия): широта -4.17 долгота -69.95 высота над уровнем моря 84 м.
В архиве по умолчанию представлена погода в Летисии за последнюю неделю. Архивные данные за месяц целиком и за предыдущие месяцы, начиная с января 2011 года, Вы можете получить, выбрав интересующий диапазон дат из раскрывающегося списка и нажав кнопку "Найти!".
*Определитесь, кто Вы:
Внимание! Время в таблицах - всемирное. Для получения местного времени необходимо прибавить поправку, которая равна -5 ч.
Смотрите также архив погоды в соседних городах и на ближайших метеорологических станциях:
Партнеры нашего сайта:      
Пояснения к столбцам:
  • Ветер - указаны скорость ветра в м/с - средняя за 10 мин, порывы в срок и между сроками (в фигурных скобках) и направление, откуда дует ветер: С - северный,
  • СВ - северо-восточный, В - восточный, ЮВ - юго-восточный, Ю - южный, ЮЗ - юго-западный, З - западный, СЗ - северо-западный.
  • Видимость - горизонтальная дальность видимости в метрах или километрах. При видимости от 1 до 10 км при отсутствии осадков обычно наблюдается дымка, при ухудшении видимости до 1 км и менее - туман. В сухую погоду видимость может ухудшаться дымом, пылью или мглою.
  • Явления - указаны атмосферные явления, наблюдавшиеся в срок или в последний час перед сроком; фигурными скобками обозначены явления, наблюдавшиеся между сроками (за 1-3 часа до срока); квадратными скобками обозначены град или гололедные отложения с указанием их диаметра в мм.
  • Облачность - указаны через наклонную черту общая и нижняя облачность в баллах и высота нижней границы облаков в метрах; квадратными скобками обозначены формы облаков: Ci - перистые, Cs - перисто-слоистые, Cc - перисто-кучевые, Ac - высококучевые, As - высокослоистые, Sc - слоисто-кучевые, Ns - слоисто-дождевые, Cu - кучевые, Cb - кучево-дождевые. Подробнее классификацию облаков см. в Атласе облаков (PDF).
  • T - Температура воздуха - температура, измеренная на высоте 2 м над землей.
  • Td - Температура точки росы - температура, при понижении до которой содержащийся в воздухе водяной пар достигнет насыщения.
  • f - Относительная влажность воздуха - влажноcть воздуха, измеренная на высоте 2 м над землей.
  • Te - Эффективная температура - температура, которую ощущает одетый по сезону человек в тени. Характеристика душности погоды. При расчете учитывается влияние влажности воздуха и скорости ветра на теплоощущения человека.
  • Tes - Эффективная температура на солнце - температура, которую ощущает человек, с поправкой на солнечный нагрев. Характеристика знойности погоды. Зависит от высоты солнца над горизонтом, облачности и скорости ветра. Ночью, в пасмурную погоду, а также при ветре 12 м/с и более поправка равна нулю.
  • P - Атмосферное давление - приведенное к уровню моря атмосферное давление.
  • Po - Атмосферное давление - измеренное на уровне метеостанции атмосферное давление.
  • Tmin - Минимальная температура - минимум температуры воздуха на высоте 2 м над землей.
  • Tmax - Максимальная температура - максимум температуры воздуха на высоте 2 м над землей.
  • R - Количество осадков - Количество выпавших осадков за период времени, мм. При наведении курсора мыши на число - период времени, за который выпало указанное количество осадков.
  • R24 - Количество осадков - Количество выпавших осадков за 24 часа, мм.
  • S - Снежный покров - Высота снежного покрова, см. При наведении курсора мыши на число - состояние снежного покрова и степень покрытия местности в баллах.